Regional Weather Roundup
Issued by NWS

Home | Current Version | Previous Version | Graphics & Text | Print | Product List | Glossary On
Versions: 1 2 3 4 5 6 7 8 9 10 11 12 13 14 15 16 17 18 19 20 21 22 23 24 25 26 27 28 29 30 31 32 33 34 35 36 37 38 39 40 41 42 43 44 45 46 47 48 49 50
000
ASUS45 KCYS 301610
RWRWY

WYOMING REGIONAL WEATHER ROUNDUP
NATIONAL WEATHER SERVICE CHEYENNE WY
1000 AM MDT SAT MAY 30 2015

NOTE:  "FAIR" INDICATES FEW OR NO CLOUDS BELOW 12,000 FEET
WITH NO SIGNIFICANT WEATHER AND/OR OBSTRUCTIONS TO VISIBILITY.

WYZ001-301700-
YELLOWSTONE NATIONAL PARK

CITY           SKY/WX    TMP DP  RH WIND       PRES   REMARKS
LK YELLOWSTONE   N/A     52  41  66 VRB3      30.29F
W YELLOWSTONE  NOT AVBL

$$
WYZ002>013-054>058-071-098>099-301700-
NORTHERN WYOMING

CITY           SKY/WX    TMP DP  RH WIND       PRES   REMARKS
JACKSON        SUNNY     55  45  67 CALM      30.24F
CODY           FAIR      64  48  55 S10       30.12S
GREYBULL       FAIR      66  46  48 S8        30.10F
WORLAND        FAIR      64  48  56 CALM      30.11F
SHERIDAN       FAIR      56  47  71 CALM      30.11F
BUFFALO        FAIR      58  47  66 E6        30.14S
GILLETTE       CLOUDY    50  45  83 S18G28    30.17S
HULETT         FAIR      57  43  58 CALM      30.20F
NEWCASTLE      FAIR      52  39  62 SE15G23   30.25F

$$
WYZ014>020-022>026-101>103-301700-
CENTRAL WYOMING

CITY           SKY/WX    TMP DP  RH WIND       PRES   REMARKS
BIG PINEY      FAIR      53  42  66 VRB3      30.29F
PINEDALE       FAIR      55  41  58 CALM      30.30S
DUBOIS         FAIR      57  37  47 N9G17     30.24F
LANDER         FAIR      59  46  62 E5        30.18F
RIVERTON       FAIR      57  47  69 VRB3      30.20F
CASPER         FAIR      62  45  53 SW15      30.20S
DOUGLAS        FAIR      54  47  77 SE13      30.22F

$$
WYZ021-027>030-104>119-301700-
SOUTHERN WYOMING

CITY           SKY/WX    TMP DP  RH WIND       PRES   REMARKS
EVANSTON       FAIR      60  42  51 SW8       30.27S
KEMMERER       FAIR      55  41  58 S3        30.30S
FORT BRIDGER   SUNNY     55  46  71 N5        30.31S
ROCK SPRINGS   FAIR      57  42  57 CALM      30.28S
DIXON          FAIR      58  40  52 W3        30.32S
RAWLINS        FAIR      57  41  55 CALM      30.29S
SARATOGA       FAIR      59  37  44 S5        30.31S
LARAMIE        FAIR      55  38  52 MISG      30.30S
CHEYENNE       FAIR      58  43  57 S7        30.28S
TORRINGTON     CLOUDY    55  49  80 SE13      30.24S
PINE BLUFFS    FAIR      54  45  71 S9        30.28F

$$


USA.gov is the U.S. government's official web portal to all federal, state and local government web resources and services.